Saint Johns, AZ

7:41 AM MST on December 08, 2016 (GMT -0700)
Saint Johns Industrial

Weather History for KSJN - November, 2012

Change the Weather History Date:

Monday, November 12, 2012

  Actual Average (KLSB) Record (KLSB)
Temperature  
Mean Temperature 31 °F -  
Max Temperature 42 °F 67 °F 69 °F (2014)
Min Temperature 20 °F 31 °F 23 °F (2015)
Degree Days  
Heating Degree Days 34    
Moisture  
Dew Point 12 °F    
Average Humidity 49    
Maximum Humidity 84    
Minimum Humidity 10    
Precipitation  
Precipitation 0.00 in - - ()
Sea Level Pressure  
Sea Level Pressure 30.37 in    
Wind  
Wind Speed 4 mph (NNW)    
Max Wind Speed 13 mph    
Max Gust Speed 17 mph    
Visibility 10 miles    
Events      
Averages and records for this station are not official NWS values.
T = Trace of Precipitation, MM = Missing Value Source: NWS Daily Summary

Daily Weather History Graph

Daily Weather History Graph

Search for Another Location

Airport or City:

Trip Planner

Search our weather history database for the weather conditions in past years. The results will help you decide how hot, cold, wet, or windy it might be!

Date:

Astronomy

Nov. 12, 2012 Rise Set
Actual Time 6:48 AM MST 5:14 PM MST
Civil Twilight 6:22 AM MST 5:41 PM MST
Nautical Twilight 5:51 AM MST 6:11 PM MST
Astronomical Twilight 5:22 AM MST 6:41 PM MST
Moon 5:20 AM MST (11/12) 4:21 PM MST (11/12)
Length of Visible Light 11h 18m
Length of Day
10h 25m
Waning Crescent, 2% of the Moon is Illuminated
Nov 12
Waning Crescent
Nov 13
New
Nov 20
First Quarter
Nov 28
Full
Dec 6
Last Quarter

Hourly Weather History & Observations

Time (MST) Temp. Windchill Dew Point Humidity Pressure Visibility Wind Dir Wind Speed Gust Speed Precip Events Conditions
12:54 AM 23.0 °F 18.4 °F 14.0 °F 68% 30.42 in 10.0 mi South 3.5 mph - N/A   Clear
1:54 AM 21.9 °F 17.2 °F 14.0 °F 72% 30.44 in 10.0 mi SE 3.5 mph - N/A   Clear
2:54 AM 19.0 °F - 12.9 °F 77% 30.43 in 10.0 mi Calm Calm - N/A   Clear
3:54 AM 16.0 °F - 10.9 °F 81% 30.43 in 10.0 mi Calm Calm - N/A   Clear
4:54 AM 14.0 °F - 10.0 °F 84% 30.46 in 10.0 mi Calm Calm - N/A   Clear
5:54 AM 12.9 °F - 8.1 °F 81% 30.50 in 10.0 mi Calm Calm - N/A   Clear
6:54 AM 12.9 °F - 9.0 °F 84% 30.51 in 7.0 mi Calm Calm - N/A   Clear
7:54 AM 19.0 °F - 14.0 °F 81% 30.52 in 10.0 mi Calm Calm - N/A   Clear
8:54 AM 25.0 °F - 15.1 °F 66% 30.52 in 10.0 mi Calm Calm - N/A   Clear
9:54 AM 34.0 °F 31.0 °F 18.0 °F 52% 30.46 in 10.0 mi Variable 3.5 mph - N/A   Clear
10:54 AM 39.9 °F 32.5 °F 7.0 °F 26% 30.42 in 10.0 mi ENE 12.7 mph - N/A   Clear
11:54 AM 44.1 °F 38.6 °F 5.0 °F 20% 30.36 in 10.0 mi ENE 10.4 mph - N/A   Clear
12:54 PM 48.0 °F - 9.0 °F 21% 30.30 in 10.0 mi NNE 12.7 mph 17.3 mph N/A   Clear
1:54 PM 50.0 °F - 12.0 °F 22% 30.27 in 10.0 mi NNE 8.1 mph - N/A   Clear
2:54 PM 51.1 °F - 14.0 °F 23% 30.25 in 10.0 mi Variable 6.9 mph - N/A   Clear
3:54 PM 52.0 °F - 14.0 °F 22% 30.25 in 10.0 mi North 5.8 mph - N/A   Clear
4:54 PM 48.9 °F - 14.0 °F 25% 30.26 in 10.0 mi NNW 6.9 mph - N/A   Clear
5:54 PM 37.0 °F 31.6 °F 18.0 °F 46% 30.32 in 10.0 mi West 6.9 mph - N/A   Clear
6:54 PM 35.1 °F 30.1 °F 17.1 °F 48% 30.36 in 10.0 mi West 5.8 mph - N/A   Clear
7:54 PM 33.1 °F 28.7 °F 19.0 °F 56% 30.35 in 10.0 mi West 4.6 mph - N/A   Clear
8:54 PM 33.1 °F - 18.0 °F 54% 30.34 in 10.0 mi Calm Calm - N/A   Clear
9:54 PM 30.0 °F 26.5 °F 17.1 °F 59% 30.32 in 10.0 mi South 3.5 mph - N/A   Clear
10:54 PM 30.9 °F 27.5 °F 15.1 °F 52% 30.29 in 10.0 mi South 3.5 mph - N/A   Clear
11:54 PM 28.0 °F 24.2 °F 16.0 °F 61% 30.28 in 7.0 mi South 3.5 mph - N/A   Clear